Miscellaneous Local Product
Issued by NWS North Platte, NE

Home | Current Version | Previous Version | Graphics & Text | Print | Product List | Glossary On
Versions: 1 2 3 4 5 6 7 8 9 10 11 12 13 14 15 16 17 18 19 20 21 22 23 24 25 26 27 28 29 30 31 32 33 34 35 36 37 38 39 40 41 42 43 44 45 46 47 48 49 50
000
AXUS43 KLBF 250310
MISLBF


WESTERN AND NORTH CENTRAL NEBRASKA HOURLY WEATHER ROUNDUP
NATIONAL WEATHER SERVICE NORTH PLATTE NE
1000 PM CDT SUN MAY 24 2015

***STATIONS NOT REPORTING VARIABLES SUCH AS SKY/WEATHER OR
PRESSURE ARE PROVIDED BY THE NEBRASKA DEPARTMENT OF
ROADS...RAWS...AND APRS NETWORKS...AND ARE NOT UNDER
NATIONAL WEATHER SERVICE QUALITY CONTROL***

...OBSERVATIONS IN AND NEAR THE EASTERN PANHANDLE OF NEBRASKA...

CITY           SKY/WX    TMP DP  RH WIND       PRES   REMARKS
PINE RIDGE     CLOUDY    58  53  84 NE10      29.82R
CHADRON        CLOUDY    57  55  93 NE10G18   29.81R
ALLIANCE       CLOUDY    53  51  93 N18       29.80R
SIDNEY         CLOUDY    51  48  89 SW3       29.83R
WHITECLAY        N/A     57  53  88 NE6         N/A
BIG SPRINGS      N/A     54  52  92 NE8         N/A
$$

...OBSERVATIONS IN NORTH CENTRAL NEBRASKA...

CITY           SKY/WX    TMP DP  RH WIND       PRES   REMARKS
VALENTINE      CLOUDY    59  56  89 E8        29.80R
THEDFORD       MOCLDY    60  56  89 E5        29.81R
AINSWORTH      CLOUDY    60  59  97 E6        29.82R
O`NEILL        CLOUDY    60  60  99 CALM      29.81R
ORD            CLOUDY    62  58  86 SE5       29.78R
BROKEN BOW     PTCLDY    61  57  87 S8        29.80R
BROWNLEE         N/A     62  59  90 E10         N/A
VALENTINE NWR    N/A     59  59  99 E8G15       N/A
SPRINGVIEW       N/A     59  57  92 CALM        N/A
HALSEY           N/A     61  56  84 E6          N/A
BREWSTER         N/A     62  60  94 E6          N/A
ROSE             N/A     61  61  99 NE3         N/A
NEWPORT          N/A     59  59  99 CALM        N/A
SARGENT          N/A     61  58  91 CALM        N/A
COMSTOCK         N/A     65  64  97 S6          N/A
EWING            N/A     60  58  95 CALM        N/A
$$

...OBSERVATIONS IN SOUTHWEST NEBRASKA AND FAR NORTHEAST COLORADO...

CITY           SKY/WX    TMP DP  RH WIND       PRES   REMARKS
WRAY           DRIZZLE  N/A N/A N/A S3        29.82R
IMPERIAL       RAIN      52  50  93 SE10      29.84S
OGALLALA       RAIN      53  51  96 SW9       29.82F
NORTH PLATTE   MOCLDY    59  57  93 SE5       29.79R
MCCOOK         HVY RAIN  54  51  90 NW15      29.84R FOG
LEXINGTON      PTCLDY    60  57  91 SE5       29.79S
PAXTON           N/A     54  51  90 SW14        N/A
GOTHENBURG       N/A     60  55  84 S3          N/A
CALLAWAY         N/A     58  56  94 SE8         N/A
$$

...NORTH PLATTE AREA...

CITY           SKY/WX    TMP DP  RH WIND       PRES   REMARKS
AIRPORT        MOCLDY    59  57  93 SE5       29.79R
DOWNTOWN         N/A     60  57  89 CALM        N/A
$$

...SOME WEATHER OBSERVATIONS FROM AROUND THE REGION...

CITY           SKY/WX    TMP DP  RH WIND       PRES   REMARKS
DENVER         MOCLDY    54  41  61 NW14      29.85R
LARAMIE        MOCLDY    41  36  82 W7        29.92R
CHEYENNE       CLOUDY    47  39  74 NW3       29.88S
SCOTTSBLUFF    CLOUDY    54  49  83 W7        29.82R
RAPID CITY     CLOUDY    54  53  97 N10       29.87S
PIERRE         CLOUDY    58  56  93 NE6       29.81S
WINNER         LGT RAIN  60  58  92 NE6       29.81R FOG
SIOUX FALLS    CLOUDY    60  58  92 NE6       29.77S
OMAHA          CLOUDY    68  61  78 SW5       29.77R
GRAND ISLAND   CLOUDY    63  58  83 S8        29.81R
KANSAS CITY    CLOUDY    62  61  96 S6        29.82R
WICHITA        CLOUDY    61  59  93 SW8       29.84R
HAYS           CLOUDY    63  55  77 S10       29.82R
LIBERAL        CLOUDY    64  57  77 SE16G23   29.74F
GOODLAND       LGT RAIN  52  49  89 MISG      29.83F
$$



USA.gov is the U.S. government's official web portal to all federal, state and local government web resources and services.